Zurück zum Katalog

CZ-6A DEB

AktivPO
NORAD 61387·DEBRIS·🇨🇳 China

Gestartet Aug 6, 2024 von Taiyuan Satellite Launch Center

Loading…

Nächste Überflüge (nächste 24 Stunden)

TLE

AktuellSource: Space-Track

Epoche: Sep 14, 2026, 10:43 UTC

1 61387U 24140XC  26257.44653657  .00001582  00000-0  65622-3 0  9998
2 61387  89.0032 264.6453 0038375 222.2565 137.5670 14.25698398105199

Verfolge CZ-6A DEB in Echtzeit mit AllMySat

Download on the App Store